Location: Washington
(38.8950°N, 77.0370°W)
Time: 08:09:25
(UTC-04:00)

Amateur Radio Satellites - All Passes

Search period start: 30 June 2016 07:39
Search period end: 01 July 2016 07:39
Location: Washington, 38.8950°N, 77.0370°W

Satellite Date Start Highest point End Downlink Frequencies (MHz)
Time Altitude Azimuth
DANDE 30 Jun 07:48:55 07:56:53 49° 92° (E) 08:04:14 436.750
CUTE-I 30 Jun 07:51:31 07:56:52 68° 286° (WNW) 08:02:10 437.470
CANX-2 30 Jun 07:58:30 08:00:15 12° 91° (E) 08:02:01 2200.000
LilacSat-2 30 Jun 08:03:18 08:06:48 33° 288° (WNW) 08:10:18 437.200
AO-85 30 Jun 08:07:40 08:08:59 11° 254° (WSW) 08:10:16 145.980
NOAA 15 30 Jun 08:14:38 08:19:09 30° 293° (WNW) 08:23:39 137.62
CUTE 1.7 + AOD 2 30 Jun 08:17:08 08:20:04 18° 93° (E) 08:22:58 437.475
SEEDS 30 Jun 08:18:44 08:20:38 13° 91° (E) 08:22:31 437.485
ISS 30 Jun 08:24:58 08:28:13 75° 138° (SE) 08:31:29 145.825
DOVE 4 30 Jun 08:25:55 08:30:19 83° 282° (WNW) 08:34:56 437.250
GONETS M04 30 Jun 08:27:29 08:30:48 13° 285° (WNW) 08:34:08
STRAND 1 30 Jun 08:28:56 08:33:22 29° 264° (W) 08:37:51 437.568
PRISM 30 Jun 08:41:24 08:45:30 63° 74° (ENE) 08:49:36 437.425
PHONESAT 2.4 30 Jun 08:44:10 08:47:13 61° 359° (N) 08:50:15 2401.200-2431.200
AAUSAT CUBESAT 2 30 Jun 08:52:01 08:54:44 17° 93° (E) 08:57:27 437.432
HO-68 30 Jun 08:52:32 08:59:31 51° 101° (E) 09:06:28 435.675
CUSAT 1 30 Jun 08:54:07 09:00:48 32° 285° (WNW) 09:06:34 437.405
CUBEBUG 2 30 Jun 08:54:40 08:57:51 18° 93° (E) 09:01:03 437.445
Cubesat XI-IV 30 Jun 08:59:03 09:02:35 18° 297° (WNW) 09:06:06 437.490
CINEMA 3 30 Jun 09:08:25 09:13:02 83° 103° (ESE) 09:17:50 145.822/145.860
NOAA 18 30 Jun 09:08:25 09:11:30 15° 300° (WNW) 09:14:35 137.9125
ZACube-1 30 Jun 09:14:11 09:16:05 12° 91° (E) 09:17:59 437.345
GOMX 1 30 Jun 09:15:02 09:16:30 12° 295° (WNW) 09:17:58 467.674
Oscar 11 30 Jun 09:20:06 09:22:29 14° 92° (E) 09:24:50 145.826/435.025
COMPASS 1 30 Jun 09:26:49 09:30:57 56° 100° (E) 09:35:02 437.405
FUNcube-1 30 Jun 09:29:43 09:32:47 18° 93° (E) 09:35:51 145.935
DANDE 30 Jun 09:32:07 09:39:46 38° 286° (WNW) 09:46:49 436.750
CANX-2 30 Jun 09:32:14 09:36:24 52° 286° (WNW) 09:40:32 2200.000
UWE-3 30 Jun 09:37:23 09:41:38 35° 97° (E) 09:45:53 435.000/436.395/437.385
PCSat 30 Jun 09:48:01 09:50:24 13° 41° (NE) 09:52:46 145.827
CUTE 1.7 + AOD 2 30 Jun 09:52:05 09:56:00 35° 288° (WNW) 09:59:52 437.475
SEEDS 30 Jun 09:52:31 09:56:36 48° 287° (WNW) 10:00:39 437.485
AUBIESAT-1 30 Jun 09:55:32 09:59:10 31° 103° (ESE) 10:03:00 437.475
TIGRISAT 30 Jun 09:58:13 10:01:46 26° 69° (ENE) 10:05:24 435.000
ISS 30 Jun 10:02:40 10:04:58 18° 337° (NNW) 10:07:18 145.825
UNISAT 6 30 Jun 10:03:42 10:07:30 31° 70° (ENE) 10:11:23 437.425
HUMSAT D 30 Jun 10:11:55 10:12:59 11° 90° (E) 10:14:04 437.325/437.525
BEESAT 3 30 Jun 10:15:52 10:17:55 14° 44° (NE) 10:19:58 437.485
PHONESAT 2.4 30 Jun 10:20:50 10:23:55 80° 195° (SSW) 10:26:59 2401.200-2431.200
DELFI C3 30 Jun 10:22:41 10:26:15 31° 97° (E) 10:29:46 145.870
AAUSAT CUBESAT 2 30 Jun 10:26:31 10:30:20 35° 288° (WNW) 10:34:06 437.432
CUBEBUG 2 30 Jun 10:30:13 10:34:36 43° 287° (WNW) 10:39:04 437.445
RS-15 30 Jun 10:33:29 10:42:35 29° 102° (ESE) 10:52:00 29.354- 29.394
M-CUBED/EXP-1 PRIME 30 Jun 10:36:13 10:40:10 69° 289° (WNW) 10:44:25 437.505
HO-68 30 Jun 10:40:48 10:46:54 31° 298° (WNW) 10:52:58 435.675
ANTELSAT 30 Jun 10:42:49 10:47:08 87° 75° (ENE) 10:51:34 437.575/2403.000
ZACube-1 30 Jun 10:48:11 10:52:41 60° 286° (WNW) 10:57:12 437.345
CINEMA 3 30 Jun 10:49:04 10:49:33 10° 297° (WNW) 10:50:02 145.822/145.860
Oscar 11 30 Jun 10:54:40 10:58:50 46° 287° (WNW) 11:02:59 145.826/435.025
BEESAT 2 30 Jun 10:56:49 10:59:45 19° 48° (NE) 11:02:40 435.950
COMPASS 1 30 Jun 11:04:26 11:06:00 12° 296° (WNW) 11:07:34 437.405
FUNcube-1 30 Jun 11:04:53 11:09:10 42° 288° (WNW) 11:13:28 145.935
UWE-3 30 Jun 11:14:18 11:17:52 22° 292° (WNW) 11:21:27 435.000/436.395/437.385
JAS-2 30 Jun 11:16:09 11:20:23 16° 60° (ENE) 11:24:24 435.910
O/OREOS (USA 219) 30 Jun 11:22:06 11:23:32 11° 53° (NE) 11:24:58 437.305
NANOSAT C BR1 30 Jun 11:27:42 11:31:37 40° 72° (ENE) 11:35:33 145.865
PCSat 30 Jun 11:29:17 11:34:44 75° 61° (ENE) 11:40:08 145.827
AUBIESAT-1 30 Jun 11:30:24 11:33:28 21° 295° (WNW) 11:36:40 437.475
QB50P1 30 Jun 11:31:42 11:35:44 48° 73° (ENE) 11:39:47 145.935-145.965
TIGRISAT 30 Jun 11:34:47 11:38:22 25° 265° (W) 11:42:02 435.000
POPSAT HIP 1 30 Jun 11:35:05 11:39:08 52° 74° (ENE) 11:43:13 437.405
YUBILEINY 30 Jun 11:35:13 11:40:44 19° 79° (ENE) 11:46:17 435.215
UNISAT 6 30 Jun 11:40:59 11:44:15 21° 266° (W) 11:47:35 437.425
HUMSAT D 30 Jun 11:44:42 11:48:58 60° 285° (WNW) 11:53:11 437.325/437.525
DUCHIFAT 1 30 Jun 11:47:04 11:51:12 65° 75° (ENE) 11:55:21 145.980
QB50P2 30 Jun 11:47:46 11:51:57 81° 76° (ENE) 11:56:11 145.880/145.840
Cosmos 2491 30 Jun 11:48:59 11:57:33 57° 78° (ENE) 12:06:04 435.465 / 435.565
POLYITAN 1 30 Jun 11:50:24 11:54:35 83° 77° (ENE) 11:58:48 437.675
BEESAT 3 30 Jun 11:52:04 11:55:59 61° 242° (WSW) 11:59:51 437.485
PHONESAT 2.4 30 Jun 11:57:58 12:00:14 19° 210° (SSW) 12:02:30 2401.200-2431.200
DELFI C3 30 Jun 11:58:07 12:00:52 18° 292° (WNW) 12:03:36 145.870
AISAT 30 Jun 12:03:16 12:06:39 21° 95° (E) 12:10:00 437.250
ESTCUBE 1 30 Jun 12:06:37 12:10:48 37° 98° (E) 12:14:56 437.505/2401.250
50 SAT 30 Jun 12:06:56 12:09:50 22° 95° (E) 12:12:43 437.505
DX 1 30 Jun 12:16:23 12:19:43 21° 95° (E) 12:23:02 434.975-435.025
Oscar 19 30 Jun 12:32:30 12:35:46 17° 63° (ENE) 12:39:03 437.125/150
BEESAT 2 30 Jun 12:34:00 12:37:43 38° 245° (WSW) 12:41:25 435.950
BUGSAT 1 30 Jun 12:34:57 12:38:57 77° 258° (WSW) 12:42:59 437.445
RS-15 30 Jun 12:42:23 12:53:46 75° 304° (WNW) 13:05:53 29.354- 29.394
CUBEBUG 1 30 Jun 12:44:26 12:48:44 67° 101° (ESE) 12:53:01 437.445
JAS-2 30 Jun 12:56:55 13:04:36 86° 76° (ENE) 13:11:34 435.910
VELOX 1 30 Jun 12:57:43 13:02:08 84° 101° (E) 13:06:32 145.980
O/OREOS (USA 219) 30 Jun 12:59:00 13:03:29 76° 251° (WSW) 13:07:58 437.305
NANOSAT C BR1 30 Jun 13:05:07 13:07:31 15° 267° (W) 13:09:56 145.865
Gurwin Techsat 1B 30 Jun 13:05:36 13:08:44 16° 62° (ENE) 13:11:52 435.225
QB50P1 30 Jun 13:09:54 13:11:46 13° 268° (W) 13:13:38 145.935-145.965
POPSAT HIP 1 30 Jun 13:13:42 13:15:13 12° 269° (W) 13:16:45 437.405
PCSat 30 Jun 13:14:54 13:17:25 13° 257° (WSW) 13:19:55 145.827
ISS 30 Jun 13:18:21 13:20:07 14° 18° (NNE) 13:21:53 145.825
Cosmos 2504 30 Jun 13:21:22 13:28:06 30° 83° (E) 13:35:11 435.465 / 435.565
SPROUT 30 Jun 13:25:31 13:29:49 77° 102° (ESE) 13:34:07 437.525
YUBILEINY 30 Jun 13:27:39 13:36:21 82° 277° (W) 13:45:11 435.215
UKube-1 30 Jun 13:27:57 13:32:15 72° 285° (WNW) 13:36:32 .
AIST 2 30 Jun 13:32:29 13:36:28 43° 55° (NE) 13:40:26 435.215
AISAT 30 Jun 13:39:15 13:43:08 32° 290° (WNW) 13:47:02 437.250
50 SAT 30 Jun 13:40:35 13:43:24 21° 291° (WNW) 13:46:14 437.505
ESTCUBE 1 30 Jun 13:44:05 13:47:19 20° 293° (WNW) 13:50:32 437.505/2401.250
Cosmos 2491 30 Jun 13:46:42 13:53:49 29° 277° (W) 14:00:55 435.465 / 435.565
DX 1 30 Jun 13:52:06 13:55:55 31° 290° (WNW) 13:59:44 434.975-435.025
Oscar 19 30 Jun 14:09:34 14:14:37 56° 259° (W) 14:19:41 437.125/150
CUBEBUG 1 30 Jun 14:23:18 14:24:26 11° 297° (WNW) 14:25:34 437.445
SWISSCUBE 30 Jun 14:28:31 14:31:52 19° 93° (E) 14:35:10 437.505
ITAMSAT 1 30 Jun 14:36:47 14:41:36 40° 70° (ENE) 14:46:27 435.822/435.867
AO-7 30 Jun 14:38:02 14:45:01 31° 58° (ENE) 14:52:02 29.400- 29.500
TISAT 1 30 Jun 14:38:21 14:42:31 64° 286° (WNW) 14:46:42 437.305
Gurwin Techsat 1B 30 Jun 14:42:50 14:48:06 65° 258° (WSW) 14:53:24 435.225
JAS-2 30 Jun 14:45:34 14:50:06 17° 269° (W) 14:54:27 435.910
BEESAT 30 Jun 14:52:52 14:57:05 30° 97° (E) 15:01:15 436.000
ISS 30 Jun 14:53:52 14:57:07 60° 36° (NE) 15:00:21 145.825
ITUPSAT 1 30 Jun 14:55:17 14:59:33 31° 97° (E) 15:03:47 437.325
RS-15 30 Jun 14:59:16 15:08:46 27° 332° (NNW) 15:18:38 29.354- 29.394
SO-50 30 Jun 15:06:14 15:10:34 33° 113° (ESE) 15:14:55 436.795
AIST 2 30 Jun 15:12:01 15:14:36 16° 250° (WSW) 15:17:10 435.215
Cosmos 2504 30 Jun 15:12:56 15:20:53 56° 282° (WNW) 15:29:25 435.465 / 435.565
YUBILEINY 30 Jun 15:29:46 15:34:37 16° 298° (WNW) 15:39:30 435.215
SWISSCUBE 30 Jun 16:05:18 16:09:49 43° 289° (WNW) 16:14:19 437.505
ITAMSAT 1 30 Jun 16:17:03 16:21:10 24° 265° (W) 16:25:20 435.822/435.867
AIST 1 30 Jun 16:26:02 16:29:04 19° 88° (E) 16:32:05
AO-7 30 Jun 16:29:06 16:37:16 60° 256° (WSW) 16:45:33 29.400- 29.500
JUGNU 30 Jun 16:30:40 16:32:36 12° 180° (S) 16:34:32 437.505
BEESAT 30 Jun 16:30:44 16:34:44 27° 292° (WNW) 16:38:44 436.000
ISS 30 Jun 16:31:39 16:33:11 13° 231° (SW) 16:34:42 145.825
ITUPSAT 1 30 Jun 16:33:16 16:37:15 26° 293° (WNW) 16:41:12 437.325
KKS-1 30 Jun 16:43:59 16:48:20 52° 100° (E) 16:52:41 437.445
SO-50 30 Jun 16:46:41 16:51:02 31° 310° (NW) 16:55:22 436.795
MOZHAYETS 4 30 Jun 16:49:55 16:54:31 58° 101° (E) 16:59:03
Cubesat XI-IV 30 Jun 17:03:09 17:04:32 11° 58° (ENE) 17:05:55 437.490
HORYU 2 30 Jun 17:05:52 17:10:16 72° 75° (ENE) 17:14:42 437.375
STARS 30 Jun 17:10:11 17:14:28 50° 100° (E) 17:18:46 437.465
NOAA 18 30 Jun 17:13:13 17:16:34 17° 61° (ENE) 17:19:55 137.9125
RS-15 30 Jun 17:19:13 17:27:20 19° 8° (N) 17:35:34 29.354- 29.394
GONETS M04 30 Jun 17:31:50 17:38:31 26° 82° (E) 17:45:12
CUTE-I 30 Jun 17:33:44 17:37:46 22° 64° (ENE) 17:41:48 437.470
SRMSAT 30 Jun 17:50:08 17:51:26 11° 175° (S) 17:52:43 437.500
CUSAT 1 30 Jun 17:51:45 17:52:37 11° 65° (ENE) 17:53:26 437.405
Cosmos 2499 30 Jun 17:51:57 17:58:03 23° 80° (E) 18:04:22 435.465 / 435.565
NOAA 15 30 Jun 17:53:29 17:58:30 46° 70° (ENE) 18:03:31 137.62
AIST 1 30 Jun 18:02:33 18:06:24 31° 283° (WNW) 18:10:16
BRITE-PL 30 Jun 18:19:01 18:24:02 75° 76° (ENE) 18:28:41 437.365/2234.400
KKS-1 30 Jun 18:22:03 18:24:27 14° 296° (WNW) 18:26:51 437.445
CUBESAT XI-V 30 Jun 18:23:30 18:28:07 66° 101° (E) 18:32:40 437.345
MOZHAYETS 4 30 Jun 18:28:44 18:31:10 14° 296° (WNW) 18:33:34
DANDE 30 Jun 18:33:50 18:36:56 18° 65° (ENE) 18:39:31 436.750
Cubesat XI-IV 30 Jun 18:38:23 18:43:44 85° 75° (ENE) 18:49:08 437.490
GOMX 1 30 Jun 18:41:34 18:46:03 55° 75° (ENE) 18:50:18 467.674
LilacSat-2 30 Jun 18:43:24 18:47:10 84° 258° (WSW) 18:51:00 437.200
STARS 30 Jun 18:47:57 18:50:24 15° 296° (WNW) 18:52:50 437.465
NOAA 18 30 Jun 18:51:13 18:56:38 67° 258° (WSW) 19:02:07 137.9125
STRAND 1 30 Jun 19:03:54 19:05:13 11° 89° (E) 19:06:33 437.568
CUTE 1.7 + AOD 2 30 Jun 19:10:07 19:11:41 12° 64° (ENE) 19:13:16 437.475
CUTE-I 30 Jun 19:12:20 19:17:27 46° 261° (W) 19:22:38 437.470
HO-68 30 Jun 19:20:10 19:26:24 34° 63° (ENE) 19:32:40 435.675
GONETS M04 30 Jun 19:25:59 19:34:36 64° 280° (W) 19:43:14
DOVE 4 30 Jun 19:30:23 19:34:42 85° 75° (ENE) 19:38:54 437.250
CUSAT 1 30 Jun 19:32:19 19:34:51 21° 271° (W) 19:37:03 437.405
RS-15 30 Jun 19:33:27 19:44:48 40° 41° (NE) 19:56:04 29.354- 29.394
NOAA 15 30 Jun 19:34:33 19:38:27 21° 266° (W) 19:42:23 137.62
SRMSAT 30 Jun 19:38:17 19:39:39 11° 185° (S) 19:41:02 437.500
Cosmos 2499 30 Jun 19:41:52 19:50:10 73° 279° (W) 19:59:02 435.465 / 435.565
AAUSAT CUBESAT 2 30 Jun 19:43:08 19:43:59 11° 63° (ENE) 19:44:50 437.432
CUBEBUG 2 30 Jun 19:53:26 19:54:57 12° 63° (ENE) 19:56:29 437.445
BRITE-PL 30 Jun 20:02:09 20:02:51 10° 269° (W) 20:03:34 437.365/2234.400
CUBESAT XI-V 30 Jun 20:03:03 20:04:54 12° 297° (WNW) 20:06:45 437.345
CINEMA 3 30 Jun 20:09:08 20:13:12 61° 76° (ENE) 20:17:20 145.822/145.860
Oscar 11 30 Jun 20:15:49 20:16:23 10° 63° (ENE) 20:16:58 145.826/435.025
DANDE 30 Jun 20:16:12 20:19:51 25° 273° (W) 20:22:47 436.750
COMPASS 1 30 Jun 20:16:19 20:20:04 32° 71° (ENE) 20:23:49 437.405
GOMX 1 30 Jun 20:22:38 20:24:24 12° 268° (W) 20:26:09 467.674
CANX-2 30 Jun 20:23:08 20:27:25 89° 247° (WSW) 20:31:45 2200.000
Cubesat XI-IV 30 Jun 20:23:21 20:24:26 11° 271° (W) 20:25:30 437.490
FUNcube-1 30 Jun 20:25:52 20:27:15 11° 63° (ENE) 20:28:37 145.935
UWE-3 30 Jun 20:33:49 20:37:06 23° 68° (ENE) 20:40:28 435.000/436.395/437.385
AO-85 30 Jun 20:36:58 20:41:44 32° 113° (ESE) 20:46:25 145.980
STRAND 1 30 Jun 20:39:47 20:44:58 79° 285° (WNW) 20:50:05 437.568
AUBIESAT-1 30 Jun 20:41:33 20:44:19 25° 66° (ENE) 20:47:08 437.475
SEEDS 30 Jun 20:42:19 20:46:35 87° 262° (W) 20:50:52 437.485
CUTE 1.7 + AOD 2 30 Jun 20:42:46 20:46:59 60° 260° (W) 20:51:15 437.475
HO-68 30 Jun 21:07:06 21:13:53 46° 261° (W) 21:20:44 435.675
DELFI C3 30 Jun 21:08:13 21:10:47 17° 67° (ENE) 21:13:23 145.870
AAUSAT CUBESAT 2 30 Jun 21:14:43 21:18:53 65° 259° (W) 21:23:05 437.432
M-CUBED/EXP-1 PRIME 30 Jun 21:22:32 21:25:45 60° 254° (WSW) 21:29:01 437.505
CUBEBUG 2 30 Jun 21:26:56 21:31:01 57° 260° (W) 21:35:15 437.445
GONETS M04 30 Jun 21:31:16 21:33:22 11° 302° (WNW) 21:35:28
Cosmos 2499 30 Jun 21:40:57 21:45:03 14° 301° (WNW) 21:49:15 435.465 / 435.565
ZACube-1 30 Jun 21:42:27 21:46:40 90° 253° (WSW) 21:51:00 437.345
RS-15 30 Jun 21:46:02 21:58:17 71° 245° (WSW) 22:10:21 29.354- 29.394
Oscar 11 30 Jun 21:47:33 21:51:52 72° 258° (WSW) 21:56:15 145.826/435.025
COMPASS 1 30 Jun 21:52:35 21:55:39 19° 266° (W) 21:58:44 437.405
FUNcube-1 30 Jun 21:58:45 22:02:54 62° 260° (W) 22:07:11 145.935
PRISM 30 Jun 21:59:18 22:03:21 65° 286° (WNW) 22:07:22 437.425
UWE-3 30 Jun 22:09:50 22:13:25 28° 264° (W) 22:17:07 435.000/436.395/437.385
AUBIESAT-1 30 Jun 22:17:02 22:18:53 14° 261° (W) 22:20:45 437.475
AO-85 30 Jun 22:17:10 22:22:10 37° 308° (NW) 22:27:02 145.980
HUMSAT D 30 Jun 22:34:14 22:38:23 78° 78° (ENE) 22:42:38 437.325/437.525
ANTELSAT 30 Jun 22:36:13 22:39:47 21° 94° (E) 22:43:20 437.575/2403.000
DELFI C3 30 Jun 22:41:38 22:45:21 35° 262° (W) 22:49:06 145.870
AISAT 30 Jun 23:00:05 23:02:58 17° 66° (ENE) 23:05:50 437.250
Cosmos 2491 30 Jun 23:00:07 23:01:41 11° 74° (ENE) 23:03:15 435.465 / 435.565
ESTCUBE 1 30 Jun 23:04:57 23:08:54 30° 70° (ENE) 23:12:51 437.505/2401.250
DX 1 30 Jun 23:11:21 23:14:09 17° 65° (ENE) 23:16:57 434.975-435.025
TIGRISAT 30 Jun 23:26:13 23:30:54 70° 101° (E) 23:35:35 435.000
UNISAT 6 30 Jun 23:32:13 23:36:55 85° 104° (ESE) 23:41:37 437.425
DUCHIFAT 1 30 Jun 23:34:39 23:36:02 11° 91° (E) 23:37:24 145.980
QB50P2 30 Jun 23:35:20 23:37:42 14° 92° (E) 23:40:03 145.880/145.840
POLYITAN 1 30 Jun 23:37:54 23:40:20 15° 92° (E) 23:42:47 437.675
CUBEBUG 1 30 Jun 23:38:58 23:43:08 46° 73° (ENE) 23:47:17 437.445
SO-50 30 Jun 23:39:02 23:42:43 22° 46° (NE) 23:46:19 436.795
YUBILEINY 30 Jun 23:39:30 23:47:59 48° 76° (ENE) 23:56:25 435.215
VELOX 1 30 Jun 23:53:30 23:57:52 63° 74° (ENE) 00:02:13 145.980
RS-15 01 Jul 00:02:36 00:08:25 15° 265° (W) 00:14:13 29.354- 29.394
ANTELSAT 01 Jul 00:12:16 00:16:33 37° 289° (WNW) 00:20:52 437.575/2403.000
50 SAT 01 Jul 00:16:06 00:19:45 57° 259° (W) 00:23:27 437.505
SPROUT 01 Jul 00:17:41 00:21:46 47° 73° (ENE) 00:25:51 437.525
BUGSAT 1 01 Jul 00:18:54 00:21:31 16° 94° (E) 00:24:08 437.445
UKube-1 01 Jul 00:20:51 00:25:10 80° 75° (ENE) 00:29:29 .
PCSat 01 Jul 00:31:25 00:32:14 10° 101° (ESE) 00:33:03 145.827
AISAT 01 Jul 00:34:57 00:39:06 41° 261° (W) 00:43:16 437.250
ESTCUBE 1 01 Jul 00:42:00 00:45:40 24° 265° (W) 00:49:21 437.505/2401.250
DX 1 01 Jul 00:45:54 00:50:00 41° 261° (W) 00:54:07 434.975-435.025
Cosmos 2491 01 Jul 00:48:05 00:56:44 68° 93° (E) 01:05:24 435.465 / 435.565
NANOSAT C BR1 01 Jul 00:48:28 00:52:44 88° 288° (WNW) 00:57:00 145.865
QB50P1 01 Jul 00:52:59 00:57:15 74° 284° (WNW) 01:01:30 145.935-145.965
POPSAT HIP 1 01 Jul 00:56:28 01:00:43 69° 285° (WNW) 01:04:58 437.405
TIGRISAT 01 Jul 01:05:05 01:06:59 12° 297° (WNW) 01:08:53 435.000
Cosmos 2504 01 Jul 01:06:55 01:15:36 55° 77° (ENE) 01:23:50 435.465 / 435.565
DUCHIFAT 1 01 Jul 01:07:52 01:12:02 55° 286° (WNW) 01:16:11 145.980
QB50P2 01 Jul 01:09:38 01:13:42 44° 287° (WNW) 01:17:46 145.880/145.840
POLYITAN 1 01 Jul 01:12:16 01:16:20 43° 288° (WNW) 01:20:24 437.675
UNISAT 6 01 Jul 01:12:46 01:12:54 10° 299° (WNW) 01:13:04 437.425
CUBEBUG 1 01 Jul 01:17:17 01:19:39 14° 268° (W) 01:22:00 437.445
SO-50 01 Jul 01:19:00 01:23:23 43° 244° (WSW) 01:27:37 436.795
TISAT 1 01 Jul 01:28:23 01:32:32 77° 76° (ENE) 01:36:42 437.305
O/OREOS (USA 219) 01 Jul 01:33:06 01:35:26 14° 99° (E) 01:37:46 437.305
VELOX 1 01 Jul 01:33:42 01:34:42 11° 269° (W) 01:35:42 145.980
SWISSCUBE 01 Jul 01:33:59 01:37:24 20° 65° (ENE) 01:40:50 437.505
YUBILEINY 01 Jul 01:36:44 01:44:29 36° 275° (W) 01:52:14 435.215
BEESAT 3 01 Jul 01:41:44 01:45:06 28° 113° (ESE) 01:48:29 437.485
BUGSAT 1 01 Jul 01:53:13 01:57:00 36° 288° (WNW) 02:00:49 437.445
JAS-2 01 Jul 01:53:56 01:59:29 83° 102° (ESE) 02:04:40 435.910
SPROUT 01 Jul 01:55:57 01:57:58 13° 268° (W) 01:59:59 437.525
BEESAT 01 Jul 01:58:04 02:02:14 31° 69° (ENE) 02:06:25 436.000
ITUPSAT 1 01 Jul 02:00:48 02:05:02 32° 69° (ENE) 02:09:17 437.325
PCSat 01 Jul 02:09:21 02:14:46 90° 105° (ESE) 02:20:14 145.827
Oscar 19 01 Jul 02:22:13 02:27:16 56° 101° (E) 02:32:17 437.125/150
BEESAT 2 01 Jul 02:24:21 02:28:08 46° 117° (ESE) 02:31:58 435.950
Cosmos 2491 01 Jul 02:47:26 02:54:16 25° 292° (WNW) 03:01:09 435.465 / 435.565
ITAMSAT 1 01 Jul 02:52:09 02:55:08 15° 92° (E) 02:58:06 435.822/435.867
Gurwin Techsat 1B 01 Jul 03:00:16 03:05:30 55° 101° (E) 03:10:43 435.225
Cosmos 2504 01 Jul 03:01:04 03:08:27 31° 277° (W) 03:15:35 435.465 / 435.565
O/OREOS (USA 219) 01 Jul 03:10:01 03:14:22 49° 294° (WNW) 03:18:43 437.305
SWISSCUBE 01 Jul 03:10:20 03:14:52 43° 261° (W) 03:19:27 437.505
BEESAT 3 01 Jul 03:19:32 03:22:45 24° 310° (NW) 03:25:59 437.485
AIST 2 01 Jul 03:31:20 03:32:49 12° 108° (ESE) 03:34:19 435.215
BEESAT 01 Jul 03:35:59 03:39:58 26° 264° (W) 03:44:00 436.000
ITUPSAT 1 01 Jul 03:38:54 03:42:51 25° 265° (W) 03:46:50 437.325
KKS-1 01 Jul 03:40:45 03:44:53 41° 72° (ENE) 03:49:02 437.445
JAS-2 01 Jul 03:41:45 03:43:40 12° 303° (WNW) 03:45:32 435.910
GONETS M04 01 Jul 03:45:45 03:47:25 11° 57° (ENE) 03:49:05
MOZHAYETS 4 01 Jul 03:50:19 03:54:44 47° 73° (ENE) 03:59:12
PCSat 01 Jul 03:55:51 03:58:56 15° 316° (NW) 04:02:01 145.827
Oscar 19 01 Jul 04:02:49 04:06:07 17° 297° (WNW) 04:09:24 437.125/150
BEESAT 2 01 Jul 04:03:37 04:06:13 17° 314° (NW) 04:08:49 435.950
STARS 01 Jul 04:05:36 04:09:36 37° 71° (ENE) 04:13:38 437.465
AIST 1 01 Jul 04:10:12 04:14:22 51° 80° (E) 04:18:30
ITAMSAT 1 01 Jul 04:29:49 04:34:59 61° 287° (WNW) 04:40:06 435.822/435.867
AO-7 01 Jul 04:31:58 04:40:07 52° 102° (ESE) 04:48:10 29.400- 29.500
Gurwin Techsat 1B 01 Jul 04:41:23 04:44:59 19° 297° (WNW) 04:48:34 435.225
HORYU 2 01 Jul 04:59:23 05:01:59 15° 93° (E) 05:04:35 437.375
AIST 2 01 Jul 05:06:44 05:10:47 57° 303° (WNW) 05:14:52 435.215
AO-85 01 Jul 05:10:47 05:13:59 18° 44° (NE) 05:17:00 145.980
KKS-1 01 Jul 05:18:46 05:21:36 17° 267° (W) 05:24:28 437.445
CUBESAT XI-V 01 Jul 05:25:13 05:29:48 55° 74° (ENE) 05:34:24 437.345
MOZHAYETS 4 01 Jul 05:29:18 05:32:08 16° 268° (W) 05:34:59
Cosmos 2499 01 Jul 05:35:20 05:43:28 41° 73° (ENE) 05:51:05 435.465 / 435.565
GONETS M04 01 Jul 05:37:35 05:46:15 62° 79° (E) 05:54:53
STARS 01 Jul 05:43:09 05:46:04 18° 266° (W) 05:49:03 437.465
AIST 1 01 Jul 05:50:05 05:51:26 11° 275° (W) 05:52:47
PHONESAT 2.4 01 Jul 06:03:40 06:06:33 40° 157° (SSE) 06:09:28 2401.200-2431.200
NOAA 15 01 Jul 06:10:48 06:14:24 18° 93° (E) 06:17:57 137.62
STRAND 1 01 Jul 06:17:48 06:20:49 16° 62° (ENE) 06:23:51 437.568
LilacSat-2 01 Jul 06:19:59 06:21:23 12° 91° (E) 06:22:46 437.200
AO-7 01 Jul 06:25:12 06:32:33 36° 300° (WNW) 06:39:53 29.400- 29.500
BRITE-PL 01 Jul 06:25:32 06:28:47 22° 95° (E) 06:32:05 437.365/2234.400
HORYU 2 01 Jul 06:34:27 06:38:46 47° 288° (WNW) 06:43:04 437.375
GOMX 1 01 Jul 06:45:03 06:47:46 16° 94° (E) 06:50:33 467.674
CUSAT 1 01 Jul 06:47:35 06:54:20 35° 92° (E) 07:00:08 437.405
AO-85 01 Jul 06:50:30 06:54:46 48° 244° (WSW) 06:58:41 145.980
Cubesat XI-IV 01 Jul 06:57:09 07:02:09 37° 98° (E) 07:07:06 437.490
CUBESAT XI-V 01 Jul 07:05:06 07:07:30 14° 269° (W) 07:09:53 437.345
NOAA 18 01 Jul 07:14:26 07:19:55 59° 102° (ESE) 07:25:23 137.9125
DOVE 4 01 Jul 07:30:11 07:33:47 24° 96° (E) 07:37:32 437.250
ISS 01 Jul 07:32:32 07:35:32 35° 135° (SE) 07:38:32 145.825
